7 * 24
多渠道服务支持
STARLINK-37120(NORAD编号68211)是美国SpaceX公司星链(Starlink)项目的低轨通信卫星,部署于近地轨道,属于星链卫星互联网组网的组成部分。星链星座通过大规模低轨卫星部署,为全球提供低时延宽带互联网接入服务。该卫星采用星链标准设计,配备相控阵天线与推进系统,支持动态波束调度和轨道机动。曾有星链卫星出现轨道异常事件,SpaceX会对故障卫星监控,最终使其再入大气层烧毁,降低太空碎片风险。
美国
(US)
| 数据来源 | 国际轨道数据 |
| 星历时间: | 2026-06-09T22:48:43+0800 21小时前 查看轨道信息 |
| 半长轴: | 6843.653km |
| 偏心率: | 0.0001606 |
| 轨道倾角: | 97.287° |
| 近地点辐角 | 87.188° |
| 升交点赤经 | 35.809° |
| 平近点角 | 272.955° |
| 近地点: | 464.416km |
| 远地点: | 466.616km |
| 周期: | 93.906分钟 |
| 每日圈数: | 15.334542 |